Date String (YYYY-MM-DD hh:mm:ss) UTC,Instrument flags,absolute air pressure of the measurement (hPa),sample flow rate (lpm),inlet stack bypass flow (lpm),air temperature of the measurement (°C),ambient temperature measured by the external sensor (°C),aerosol sample conditioner tube jacket temperature (°C),OPC LED temperature (°C),internal box temperature (°C),relative humidity of the measurement (%),span deviation,mass concentration of particles derived from Lorenz-Mie calculation of OPC scattering (μg/m³),mass concentration of particles derived from Lorenz-Mie calculation of OPC scattering (μg/m³),mass concentration of particles derived from Lorenz-Mie calculation of OPC scattering (μg/m³)
DateTimeUTC,F1_M11,P_M11,Q1_M11,Q2_M11,T1_M11,T2_M11,T3_M11,T4_M11,T5_M11,U1_M11,ZSPAN_M11,X2_M11,X0_M11,X1_M11
2024-01-13 15:00:00,SystemResetWarning,0823.5,5.00,000.00,019.0,018.1,000.0,027.4,020.0,2.7,0000.0,0002.05,0003.45,0001.60
2024-01-13 15:01:00,SystemResetWarning,0823.4,5.00,000.00,019.0,018.0,000.0,027.4,020.2,2.7,0000.0,0002.08,0003.62,0001.59
2024-01-13 15:02:00,SystemResetWarning,0823.3,5.01,000.00,019.1,018.5,000.0,027.4,020.7,2.7,0000.0,0002.07,0003.65,0001.58
2024-01-13 15:03:00,SystemResetWarning,0823.4,5.01,000.00,019.2,019.1,000.0,027.4,021.0,2.7,0000.0,0002.09,0003.70,0001.58
2024-01-13 15:04:00,SystemResetWarning,0823.4,4.99,000.00,019.3,019.3,000.0,027.4,020.8,2.7,0000.0,0002.05,0003.59,0001.57
2024-01-13 15:05:00,SystemResetWarning,0823.4,4.99,000.00,019.2,019.0,000.0,027.4,020.4,2.7,0000.0,0002.04,0003.79,0001.56
2024-01-13 15:06:00,SystemResetWarning,0823.5,5.00,000.00,019.1,018.8,000.0,027.4,020.1,2.7,0000.0,0002.02,0004.70,0001.55
2024-01-13 15:07:00,SystemResetWarning,0823.5,5.01,000.00,019.0,018.5,000.0,027.4,020.0,2.7,0000.0,0001.96,0004.42,0001.55
2024-01-13 15:08:00,SystemResetWarning,0823.4,5.00,000.00,019.0,018.3,000.0,027.4,020.0,2.8,0000.0,0001.91,0004.25,0001.55
2024-01-13 15:09:00,SystemResetWarning,0823.5,5.00,000.00,019.0,018.1,000.0,027.4,020.0,2.8,0000.0,0001.94,0004.38,0001.54
2024-01-13 15:10:00,SystemResetWarning,0823.5,5.00,000.00,019.0,018.1,000.0,027.4,020.2,2.8,0000.0,0001.92,0004.48,0001.51
2024-01-13 15:11:00,SystemResetWarning,0823.6,5.01,000.00,019.1,018.6,000.0,027.4,020.7,2.8,0000.0,0001.90,0004.50,0001.50
2024-01-13 15:12:00,SystemResetWarning,0823.6,5.01,000.00,019.2,019.2,000.0,027.4,021.0,2.8,0000.0,0001.87,0004.37,0001.50
2024-01-13 15:13:00,SystemResetWarning,0823.5,4.99,000.00,019.3,019.3,000.0,027.4,020.8,2.8,0000.0,0001.86,0004.31,0001.50
2024-01-13 15:14:00,SystemResetWarning,0823.5,4.99,000.00,019.2,019.1,000.0,027.4,020.4,2.8,0000.0,0001.87,0004.30,0001.50
2024-01-13 15:15:00,SystemResetWarning,0823.5,5.01,000.00,019.1,018.9,000.0,027.4,020.1,2.8,0000.0,0001.91,0004.42,0001.50
2024-01-13 15:16:00,SystemResetWarning,0823.4,5.01,000.00,019.1,018.6,000.0,027.4,020.0,2.9,0000.0,0001.91,0004.38,0001.50
2024-01-13 15:17:00,SystemResetWarning,0823.4,5.00,000.00,019.0,018.3,000.0,027.4,020.0,2.9,0000.0,0001.93,0003.19,0001.51
2024-01-13 15:18:00,SystemResetWarning,0823.7,5.00,000.00,019.0,018.1,000.0,027.4,020.0,2.9,0000.0,0001.96,0003.37,0001.51
2024-01-13 15:19:00,SystemResetWarning,0823.7,5.00,000.00,019.0,018.1,000.0,027.4,020.2,2.9,0000.0,0001.99,0003.37,0001.52
2024-01-13 15:20:00,SystemResetWarning,0823.4,5.01,000.00,019.1,018.6,000.0,027.4,020.7,2.9,0000.0,0001.93,0003.11,0001.50
2024-01-13 15:21:00,SystemResetWarning,0823.6,5.01,000.00,019.2,019.2,000.0,027.4,020.9,2.9,0000.0,0001.95,0003.01,0001.51
2024-01-13 15:22:00,SystemResetWarning,0823.6,4.99,000.00,019.2,019.1,000.0,027.4,020.6,2.9,0000.0,0001.95,0002.90,0001.51
2024-01-13 15:23:00,SystemResetWarning,0823.5,4.99,000.00,019.1,018.8,000.0,027.4,020.2,3.0,0000.0,0001.93,0002.82,0001.49
2024-01-13 15:24:00,SystemResetWarning,0823.6,4.99,000.00,019.0,018.6,000.0,027.4,020.0,3.0,0000.0,0001.92,0003.39,0001.49
2024-01-13 15:25:00,SystemResetWarning,0823.7,5.00,000.00,019.0,018.4,000.0,027.4,020.0,3.0,0000.0,0001.92,0004.02,0001.48
2024-01-13 15:26:00,SystemResetWarning,0823.7,5.00,000.00,019.0,018.2,000.0,027.4,020.0,3.1,0000.0,0001.89,0003.93,0001.48
2024-01-13 15:27:00,SystemResetWarning,0823.8,5.00,000.00,019.0,018.1,000.0,027.4,020.2,3.1,0000.0,0001.87,0003.88,0001.48
2024-01-13 15:28:00,SystemResetWarning,0823.8,5.01,000.00,019.1,018.7,000.0,027.4,020.7,3.1,0000.0,0001.88,0003.89,0001.48
2024-01-13 15:29:00,SystemResetWarning,0823.8,5.00,000.00,019.2,019.4,000.0,027.4,021.1,3.1,0000.0,0001.87,0003.77,0001.46
2024-01-13 15:30:00,SystemResetWarning,0823.8,4.99,000.00,019.3,019.6,000.0,027.4,020.9,3.1,0000.0,0001.87,0003.79,0001.46
2024-01-13 15:31:00,SystemResetWarning,0823.8,4.99,000.00,019.3,019.3,000.0,027.4,020.5,3.1,0000.0,0001.87,0003.82,0001.45
2024-01-13 15:32:00,SystemResetWarning,0823.8,5.01,000.00,019.2,019.0,000.0,027.4,020.1,3.2,0000.0,0001.86,0003.86,0001.44
2024-01-13 15:33:00,SystemResetWarning,0823.8,5.00,000.00,019.1,018.7,000.0,027.4,020.0,3.2,0000.0,0001.88,0003.92,0001.44
2024-01-13 15:34:00,SystemResetWarning,0823.9,5.00,000.00,019.0,018.4,000.0,027.4,020.0,3.2,0000.0,0001.91,0004.06,0001.45
2024-01-13 15:35:00,SystemResetWarning,0824.0,5.00,000.00,019.0,018.2,000.0,027.4,020.0,3.2,0000.0,0001.91,0003.72,0001.44
2024-01-13 15:36:00,SystemResetWarning,0823.8,5.00,000.00,019.0,018.2,000.0,027.4,020.2,3.3,0000.0,0001.92,0003.42,0001.43
2024-01-13 15:37:00,SystemResetWarning,0823.8,5.01,000.00,019.1,018.7,000.0,027.4,020.7,3.3,0000.0,0001.93,0003.61,0001.43
2024-01-13 15:38:00,SystemResetWarning,0824.1,4.99,000.00,019.2,019.4,000.0,027.4,021.0,3.3,0000.0,0001.98,0003.73,0001.45
2024-01-13 15:39:00,SystemResetWarning,0823.9,4.99,000.00,019.3,019.3,000.0,027.4,020.6,3.3,0000.0,0001.97,0003.74,0001.45
2024-01-13 15:40:00,SystemResetWarning,0823.9,5.01,000.00,019.2,019.0,000.0,027.4,020.2,3.3,0000.0,0001.95,0003.70,0001.46
2024-01-13 15:41:00,SystemResetWarning,0823.9,5.00,000.00,019.1,018.7,000.0,027.4,020.0,3.4,0000.0,0001.96,0003.73,0001.46
2024-01-13 15:42:00,SystemResetWarning,0823.8,5.00,000.00,019.0,018.4,000.0,027.4,020.0,3.4,0000.0,0001.94,0003.65,0001.46
2024-01-13 15:43:00,SystemResetWarning,0823.8,5.00,000.00,019.0,018.2,000.0,027.4,020.0,3.4,0000.0,0001.91,0003.55,0001.46
2024-01-13 15:44:00,SystemResetWarning,0824.0,5.00,000.00,019.0,018.1,000.0,027.4,020.2,3.4,0000.0,0001.88,0003.44,0001.46
2024-01-13 15:45:00,SystemResetWarning,0824.1,5.01,000.00,019.1,018.7,000.0,027.4,020.7,3.5,0000.0,0001.86,0003.34,0001.45
2024-01-13 15:46:00,SystemResetWarning,0824.1,4.99,000.00,019.2,019.3,000.0,027.4,021.0,3.5,0000.0,0001.85,0003.28,0001.45
2024-01-13 15:47:00,SystemResetWarning,0824.1,5.00,000.00,019.2,019.3,000.0,027.4,020.6,3.5,0000.0,0001.85,0003.51,0001.45
2024-01-13 15:48:00,SystemResetWarning,0824.2,5.00,000.00,019.2,018.9,000.0,027.4,020.1,3.5,0000.0,0001.85,0004.27,0001.45
2024-01-13 15:49:00,SystemResetWarning,0824.3,5.01,000.00,019.1,018.6,000.0,027.4,020.0,3.5,0000.0,0001.83,0004.63,0001.43
2024-01-13 15:50:00,SystemResetWarning,0824.3,5.01,000.00,019.0,018.3,000.0,027.5,020.0,3.5,0000.0,0001.84,0005.66,0001.43
2024-01-13 15:51:00,SystemResetWarning,0824.2,5.00,000.00,019.0,018.1,000.0,027.5,020.2,3.5,0000.0,0001.87,0005.75,0001.43
2024-01-13 15:52:00,SystemResetWarning,0824.1,5.00,000.00,019.1,018.7,000.0,027.4,020.7,3.5,0000.0,0001.85,0006.20,0001.43
2024-01-13 15:53:00,SystemResetWarning,0824.4,5.00,000.00,019.2,019.3,000.0,027.4,020.9,3.5,0000.0,0001.84,0006.23,0001.44
2024-01-13 15:54:00,SystemResetWarning,0824.4,4.99,000.00,019.2,019.1,000.0,027.4,020.3,3.5,0000.0,0001.85,0006.28,0001.44
2024-01-13 15:55:00,SystemResetWarning,0824.3,4.99,000.00,019.1,018.7,000.0,027.4,020.0,3.5,0000.0,0001.82,0006.22,0001.43
2024-01-13 15:56:00,SystemResetWarning,0824.1,5.01,000.00,019.1,018.3,000.0,027.5,020.0,3.6,0000.0,0001.82,0006.24,0001.43
2024-01-13 15:57:00,SystemResetWarning,0824.1,5.01,000.00,019.0,018.0,000.0,027.5,020.0,3.6,0000.0,0001.80,0006.19,0001.42
2024-01-13 15:58:00,SystemResetWarning,0824.2,5.01,000.00,019.1,018.2,000.0,027.4,020.4,3.5,0000.0,0001.77,0006.13,0001.42
2024-01-13 15:59:00,SystemResetWarning,0824.2,5.00,000.00,019.2,018.9,000.0,027.4,020.9,3.5,0000.0,0001.79,0004.60,0001.45
